Weather History for Fryeburg, ME

Change the Weather History Date:

Sunday, May 5, 2013

  Actual Average Record
Temperature  
Mean Temperature 50 °F -  
Max Temperature 75 °F 63 °F 81 °F (2006)
Min Temperature 28 °F 36 °F 25 °F (2005)
Degree Days  
Heating Degree Days 14    
Moisture  
Dew Point 31 °F    
Average Humidity 82    
Maximum Humidity 100    
Minimum Humidity 19    
Precipitation  
Precipitation 0.00 in - - ()
Sea Level Pressure  
Sea Level Pressure 30.30 in    
Wind  
Wind Speed 1 mph (SE)    
Max Wind Speed 14 mph    
Max Gust Speed -    
Visibility 4 miles    
Events Fog    
Averages and records for this station are not official NWS values.
T = Trace of Precipitation, MM = Missing Value Source: NWS Daily Summary

Daily Weather History Graph

Daily Weather History Graph

Search for Another Location

Airport:

Trip Planner

Search our weather history database for the weather conditions in past years. The results will help you decide how hot, cold, wet, or windy it might be!

Date:

Astronomy

May. 05, 2013 Rise Set
Actual Time 5:29 AM EDT 7:52 PM EDT
Civil Twilight 4:57 AM EDT 8:24 PM EDT
Nautical Twilight 4:17 AM EDT 9:04 PM EDT
Astronomical Twilight 3:32 AM EDT 9:49 PM EDT
Moon 3:07 AM EDT (5/5) 3:40 PM EDT (5/5)
Length of Visible Light 15h 26m
Length of Day
14h 22m
Waning Crescent, 18% of the Moon is Illuminated
May 5
Waning Crescent
May 9
New
May 18
First Quarter
May 25
Full
May 31
Last Quarter

Hourly Weather History & Observations

Time (EDT) Temp. Dew Point Humidity Pressure Visibility Wind Dir Wind Speed Gust Speed Precip Events Conditions
12:54 AM 34.0 °F 32.0 °F 92% 30.34 in 10.0 mi Calm Calm - N/A   Clear
1:02 AM 33.8 °F 32.0 °F 93% 30.33 in 1.5 mi Calm Calm - N/A   Clear
1:05 AM 33.8 °F 32.0 °F 93% 30.33 in 1.0 mi Calm Calm - N/A   Mist
1:10 AM 33.8 °F 32.0 °F 93% 30.33 in 1.5 mi Calm Calm - N/A   Clear
1:14 AM 33.8 °F 30.2 °F 87% 30.33 in 3.0 mi Calm Calm - N/A   Clear
1:30 AM 32.0 °F 30.2 °F 93% 30.33 in 1.2 mi Calm Calm - N/A   Clear
1:33 AM 32.0 °F 30.2 °F 93% 30.33 in 0.5 mi Calm Calm - N/A Fog Fog
1:44 AM 32.0 °F 30.2 °F 93% 30.33 in 1.5 mi Calm Calm - N/A   Clear
1:54 AM 30.9 °F 30.0 °F 96% 30.34 in 1.2 mi Calm Calm - N/A   Clear
1:56 AM 30.2 °F 30.2 °F 100% 30.32 in 2.5 mi Calm Calm - N/A   Clear
2:04 AM 32.0 °F 30.2 °F 93% 30.32 in 7.0 mi Calm Calm - N/A   Clear
2:13 AM 32.0 °F 30.2 °F 93% 30.32 in 1.5 mi Calm Calm - N/A   Clear
2:15 AM 32.0 °F 30.2 °F 93% 30.32 in 0.8 mi Calm Calm - N/A   Clear
2:21 AM 30.2 °F 30.2 °F 100% 30.32 in 0.2 mi Calm Calm - N/A Fog Light Freezing Fog
2:28 AM 30.2 °F 30.2 °F 100% 30.32 in 0.5 mi Calm Calm - N/A Fog Light Freezing Fog
2:44 AM 30.2 °F 30.2 °F 100% 30.32 in 1.2 mi Calm Calm - N/A   Clear
2:50 AM 30.2 °F 30.2 °F 100% 30.31 in 0.5 mi Calm Calm - N/A Fog Light Freezing Fog
2:54 AM 30.9 °F 30.0 °F 96% 30.32 in 0.2 mi Calm Calm - N/A Fog Light Freezing Fog
3:17 AM 30.2 °F 30.2 °F 100% 30.31 in 0.5 mi Calm Calm - N/A Fog Light Freezing Fog
3:33 AM 30.2 °F 28.4 °F 93% 30.32 in 0.2 mi Calm Calm - N/A Fog Light Freezing Fog
3:54 AM 30.0 °F 28.9 °F 96% 30.33 in 0.8 mi Calm Calm - N/A   Mist
3:58 AM 30.2 °F 28.4 °F 93% 30.31 in 1.2 mi Calm Calm - N/A   Partly Cloudy
4:00 AM 30.2 °F 28.4 °F 93% 30.31 in 2.0 mi Calm Calm - N/A   Clear
4:06 AM 30.2 °F 28.4 °F 93% 30.31 in 4.0 mi Calm Calm - N/A   Partly Cloudy
4:11 AM 30.2 °F 28.4 °F 93% 30.31 in 1.8 mi Calm Calm - N/A   Scattered Clouds
4:13 AM 30.2 °F 28.4 °F 93% 30.31 in 1.0 mi Calm Calm - N/A   Mist
4:15 AM 30.2 °F 28.4 °F 93% 30.31 in 0.8 mi Calm Calm - N/A   Mist
4:29 AM 28.4 °F 28.4 °F 100% 30.31 in 0.2 mi Calm Calm - N/A Fog Light Freezing Fog
4:54 AM 28.9 °F 28.0 °F 96% 30.32 in 0.2 mi Calm Calm - N/A Fog Light Freezing Fog
5:02 AM 30.2 °F 28.4 °F 93% 30.31 in 1.0 mi Calm Calm - N/A   Mist
5:05 AM 30.2 °F 28.4 °F 93% 30.31 in 2.0 mi Calm Calm - N/A   Mostly Cloudy
5:10 AM 30.2 °F 28.4 °F 93% 30.31 in 10.0 mi Calm Calm - N/A   Scattered Clouds
5:15 AM 28.4 °F 28.4 °F 100% 30.31 in 0.8 mi Calm Calm - N/A   Mist
5:24 AM 28.4 °F 28.4 °F 100% 30.31 in 0.2 mi Calm Calm - N/A Fog Light Freezing Fog
5:41 AM 28.4 °F 28.4 °F 100% 30.31 in 0.5 mi Calm Calm - N/A Fog Light Freezing Fog
5:54 AM 28.9 °F 28.0 °F 96% 30.32 in 0.8 mi Calm Calm - N/A   Mist
6:03 AM 28.4 °F 28.4 °F 100% 30.31 in 0.2 mi Calm Calm - N/A Fog Light Freezing Fog
6:09 AM 30.2 °F 28.4 °F 93% 30.31 in 1.0 mi Calm Calm - N/A   Mist
6:11 AM 28.4 °F 28.4 °F 100% 30.31 in 3.0 mi Calm Calm - N/A   Partly Cloudy
6:54 AM 32.0 °F 32.0 °F 100% 30.33 in 10.0 mi Calm Calm - N/A   Clear
8:54 AM 51.1 °F 36.0 °F 56% 30.32 in 10.0 mi Calm Calm - N/A   Clear
9:54 AM 57.0 °F 35.1 °F 44% 30.30 in 10.0 mi Calm Calm - N/A   Clear
10:54 AM 63.0 °F 33.1 °F 33% 30.29 in 10.0 mi Variable 5.8 mph - N/A   Clear
12:54 PM 68.0 °F 30.9 °F 25% 30.25 in 10.0 mi Variable 6.9 mph - N/A   Clear
2:54 PM 73.0 °F 30.0 °F 20% 30.22 in 10.0 mi SE 9.2 mph - N/A   Clear
3:54 PM 73.9 °F 28.9 °F 19% 30.21 in 10.0 mi Variable 5.8 mph - N/A   Clear
4:54 PM 73.0 °F 35.1 °F 25% 30.20 in 10.0 mi ESE 13.8 mph - N/A   Clear
5:54 PM 68.0 °F 37.9 °F 33% 30.21 in 10.0 mi South 8.1 mph - N/A   Clear
6:54 PM 63.0 °F 37.9 °F 40% 30.22 in 10.0 mi SE 9.2 mph - N/A   Clear
7:54 PM 57.0 °F 37.9 °F 49% 30.23 in 10.0 mi SE 6.9 mph - N/A   Clear
8:54 PM 52.0 °F 39.0 °F 61% 30.25 in 10.0 mi SSE 3.5 mph - N/A   Clear
9:54 PM 50.0 °F 37.9 °F 63% 30.26 in 10.0 mi South 5.8 mph - N/A   Clear
10:54 PM 46.9 °F 37.0 °F 68% 30.25 in 10.0 mi Calm Calm - N/A   Clear
11:54 PM 42.1 °F 37.0 °F 82% 30.25 in 10.0 mi Calm Calm - N/A   Clear